FW9465 Weather Reports


Display with metric or nautical units.
time (UTC)temp
F
wind
direction
speed
MPH
gust
MPH
rain 1hr
in
rain 24hr
in
rain mn
in
humidity
%
barometer
mb
20260504045910 60 164 4.0 8.0 0.00 0.00 0.00 70 1015.7
20260504045008 60 166 4.0 7.0 0.00 0.00 0.00 69 1015.7
20260504044008 61 157 4.0 5.0 0.00 0.00 0.00 69 1015.8
20260504043009 61 157 5.0 8.0 0.00 0.00 0.00 68 1015.7
20260504042009 61 171 4.0 6.0 0.00 0.00 0.00 67 1015.8
20260504040125 62 164 5.0 6.0 0.00 0.00 0.00 65 1016.2
20260504033206 63 167 4.0 7.0 0.00 0.00 0.00 61 1016.1
20260504030207 65 161 2.0 4.0 0.00 0.00 0.00 56 1016.0
20260504025210 66 157 3.0 5.0 0.00 0.00 0.00 55 1015.8
20260504024224 67 157 3.0 6.0 0.00 0.00 0.00 54 1015.6
20260504023324 67 163 6.0 10.0 0.00 0.00 0.00 52 1015.7
20260504022309 68 157 7.0 8.0 0.00 0.00 0.00 51 1015.4
20260504021308 68 157 6.0 8.0 0.00 0.00 0.00 51 1015.4
20260504020307 69 164 6.0 10.0 0.00 0.00 0.00 50 1015.4
20260504015308 69 157 5.0 8.0 0.00 0.00 0.00 49 1015.5
20260504014407 70 168 6.0 9.0 0.00 0.00 0.00 47 1015.6
20260504013408 71 158 6.0 8.0 0.00 0.00 0.00 46 1015.4
20260504012423 72 163 4.0 6.0 0.00 0.00 0.00 45 1015.1
20260504011423 73 158 7.0 9.0 0.00 0.00 0.00 43 1015.1
20260504011308 73 157 7.0 10.0 0.00 0.00 0.00 43 1015.1
20260504010306 74 157 6.0 11.0 0.00 0.00 0.00 41 1015.0
20260504005309 74 163 6.0 11.0 0.00 0.00 0.00 39 1015.1
20260504004307 76 156 8.0 11.0 0.00 0.00 0.00 37 1014.9
20260504002407 79 161 4.0 7.0 0.00 0.00 0.00 33 1014.9
20260504001506 80 163 8.0 11.0 0.00 0.00 0.00 33 1015.0
20260504000509 80 178 5.0 10.0 0.00 0.00 0.00 33 1015.2
20260503235522 81 173 5.0 7.0 0.00 0.00 0.00 32 1015.3
20260503234607 81 165 5.0 8.0 0.00 0.00 0.00 31 1015.3
20260503233607 81 163 8.0 12.0 0.00 0.00 0.00 31 1015.0
20260503232623 82 179 4.0 11.0 0.00 0.00 0.00 31 1015.2
20260503231709 82 173 6.0 11.0 0.00 0.00 0.00 30 1015.4
20260503230806 82 188 8.0 13.0 0.00 0.00 0.00 32 1015.4
20260503225810 82 181 5.0 9.0 0.00 0.00 0.00 30 1015.5
20260503224822 82 167 10.0 14.0 0.00 0.00 0.00 30 1015.6
20260503223909 82 194 9.0 17.0 0.00 0.00 0.00 29 1015.6
20260503222908 82 163 7.0 12.0 0.00 0.00 0.00 30 1015.7
20260503222007 82 195 8.0 13.0 0.00 0.00 0.00 30 1015.5
20260503221008 83 171 4.0 11.0 0.00 0.00 0.00 30 1016.0
20260503220008 83 168 6.0 11.0 0.00 0.00 0.00 29 1016.0
20260503215108 83 199 6.0 9.0 0.00 0.00 0.00 29 1016.2
20260503214208 83 188 8.0 13.0 0.00 0.00 0.00 29 1016.4
20260503212307 83 163 9.0 15.0 0.00 0.00 0.00 30 1016.7
20260503211324 83 168 7.0 12.0 0.00 0.00 0.00 29 1016.7
20260503210308 82 185 5.0 10.0 0.00 0.00 0.00 29 1017.0
20260503205406 82 183 7.0 11.0 0.00 0.00 0.00 28 1017.2
20260503204423 82 199 6.0 15.0 0.00 0.00 0.00 29 1017.2
20260503203407 81 168 7.0 11.0 0.00 0.00 0.00 30 1017.4
20260503202424 82 166 10.0 14.0 0.00 0.00 0.00 29 1017.6
20260503201408 82 156 7.0 12.0 0.00 0.00 0.00 28 1018.0
20260503200428 81 157 5.0 5.0 0.00 0.00 0.00 30 1018.0
20260503195427 81 173 7.0 11.0 0.00 0.00 0.00 29 1018.2
20260503194429 82 165 8.0 11.0 0.00 0.00 0.00 30 1018.3
20260503193428 81 190 6.0 12.0 0.00 0.00 0.00 30 1018.3
20260503192428 81 190 7.0 11.0 0.00 0.00 0.00 30 1018.7
20260503191426 80 182 3.0 8.0 0.00 0.00 0.00 32 1018.9
20260503190428 80 194 6.0 10.0 0.00 0.00 0.00 32 1019.0
20260503185429 80 245 8.0 12.0 0.00 0.00 0.00 33 1019.0
20260503183427 80 225 9.0 13.0 0.00 0.00 0.00 34 1019.3
20260503182427 79 219 9.0 14.0 0.00 0.00 0.00 36 1019.5
20260503181444 79 196 6.0 11.0 0.00 0.00 0.00 35 1019.7
20260503180526 79 182 3.0 7.0 0.00 0.00 0.00 34 1019.9
20260503175527 79 206 5.0 11.0 0.00 0.00 0.00 37 1020.0
20260503174544 79 228 4.0 10.0 0.00 0.00 0.00 37 1020.2
20260503173527 79 196 3.0 7.0 0.00 0.00 0.00 39 1020.4
20260503172528 78 222 8.0 12.0 0.00 0.00 0.00 41 1020.6
20260503171627 77 224 3.0 9.0 0.00 0.00 0.00 41 1020.6
20260503150926 69 253 2.0 6.0 0.00 0.00 0.00 54 1021.6
20260503130943 61 226 5.0 8.0 0.00 0.00 0.00 65 1021.1
20260503100125 55 192 3.0 8.0 0.00 0.00 0.00 72 1020.0
20260503090227 57 215 6.0 9.0 0.00 0.00 0.00 71 1019.9
20260503081327 57 201 2.0 5.0 0.00 0.00 0.00 70 1019.8
20260503080425 57 208 2.0 5.0 0.00 0.00 0.00 70 1019.8
20260503071544 58 197 3.0 7.0 0.00 0.00 0.00 69 1020.2
20260503070627 58 206 3.0 7.0 0.00 0.00 0.00 68 1020.4